This demonstration page uses our WeatherBlox Daily Observations layout. Learn more.

Left ArrowRight Arrow

Hourly Observations for June 3, 2019

Temp ( °F °C ) Dew Point ( °F °C ) Humidity (%) Winds ( mph kmh ) Pressure ( in mb ) Visibility ( mi km ) Precip ( " mm )
12:51 am 00:51 Clear 74 23.3 35 1.7 24 24 NW 9 15 29.67 1005 10 16 0.00 0.00
1:51 am 01:51 Clear 68 20 34 1.1 28 28 S 5 7 29.70 1006 10 16 0.00 0.00
2:51 am 02:51 Clear 65 18.3 34 1.1 32 32 ENE 5 7 29.70 1006 10 16 0.00 0.00
3:51 am 03:51 Clear 63 17.2 32 0 31 31 Calm 29.72 1006 10 16 0.00 0.00
4:51 am 04:51 Clear 61 16.1 32 0 34 34 E 3 6 29.72 1007 10 16 0.00 0.00
5:51 am 05:51 Sunny 62 16.7 31 -0.6 31 31 Calm 29.75 1007 10 16 0.00 0.00
6:51 am 06:51 Sunny 69 20.6 34 1.1 27 27 Calm 29.76 1008 10 16 0.00 0.00
7:51 am 07:51 Sunny 75 23.9 34 1.1 22 22 Calm 29.76 1008 10 16 0.00 0.00
8:51 am 08:51 Sunny 82 27.8 35 1.7 18 18 ESE 6 9 29.75 1008 10 16 0.00 0.00
9:51 am 09:51 Sunny 85 29.4 36 2.2 17 17 VRB 5 7 29.75 1007 10 16 0.00 0.00
10:51 am 10:51 Sunny 88 31.1 34 1.1 15 15 S 9 15 29.74 1007 10 16 0.00 0.00
11:51 am 11:51 Sunny 91 32.8 33 0.6 13 13 SE 17 28 29.72 1006 10 16 0.00 0.00
12:51 pm 12:51 Sunny 91 32.8 31 -0.6 12 12 ESE 9 15 29.69 1005 10 16 0.00 0.00
1:51 pm 13:51 Sunny 96 35.6 24 -4.4 7 7 SSW 17 28 29.67 1005 10 16 0.00 0.00
2:51 pm 14:51 Sunny 96 35.6 29 -1.7 9 9 SSW 13 20 29.65 1004 10 16 0.00 0.00
3:51 pm 15:51 Sunny 95 35 26 -3.3 8 8 S 3 6 29.63 1003 10 16 0.00 0.00
4:51 pm 16:51 Sunny 96 35.6 19 -7.2 6 6 SSW 16 26 29.60 1003 10 16 0.00 0.00
5:51 pm 17:51 Sunny 94 34.4 22 -5.6 7 7 W 8 13 29.60 1002 10 16 0.00 0.00
6:51 pm 18:51 Sunny 92 33.3 25 -3.9 9 9 NW 18 30 29.59 1002 10 16 0.00 0.00
7:51 pm 19:51 Clear 87 30.6 26 -3.3 11 11 NW 13 20 29.61 1003 10 16 0.00 0.00
8:51 pm 20:51 Clear 84 28.9 28 -2.2 13 13 WNW 14 22 29.63 1004 10 16 0.00 0.00
9:51 pm 21:51 Clear 81 27.2 29 -1.7 15 15 NW 10 17 29.66 1005 10 16 0.00 0.00
10:51 pm 22:51 Clear 76 24.4 29 -1.7 18 18 WNW 9 15 29.67 1005 10 16 0.00 0.00
11:51 pm 23:51 Clear 76 24.4 32 0 20 20 WNW 10 17 29.67 1005 10 16 0.00 0.00

Powered by AerisWeather